Time,TemperatureF,DewpointF,PressureIn,WindDirection,WindDirectionDegrees,WindSpeedMPH,WindSpeedGustMPH,Humidity,HourlyPrecipIn,Conditions,Clouds,dailyrainin,SoftwareType,DateUTC
2013-01-18 00:04:00,35.2,35.2,30.27,NNW,346,0.0,0.0,100,0.00,,,0.00,Wunderground v.1.15,2013-01-18 05:04:00,
2013-01-18 00:09:00,35.1,35.1,30.27,NNW,345,0.0,0.0,100,0.00,,,0.00,Wunderground v.1.15,2013-01-18 05:09:00,
2013-01-18 00:19:00,35.0,35.0,30.28,NNW,346,0.0,0.0,100,0.00,,,0.00,Wunderground v.1.15,2013-01-18 05:19:00,
2013-01-18 00:25:00,34.9,34.9,30.28,NNW,344,0.0,0.0,100,0.00,,,0.00,Wunderground v.1.15,2013-01-18 05:25:00,
2013-01-18 00:30:00,34.8,34.8,30.28,NNW,344,0.0,0.0,100,0.00,,,0.00,Wunderground v.1.15,2013-01-18 05:30:00,
2013-01-18 00:34:00,34.6,34.6,30.30,NNW,344,0.0,0.0,100,0.00,,,0.00,Wunderground v.1.15,2013-01-18 05:34:00,
2013-01-18 00:39:00,34.4,34.4,30.30,NNW,344,0.0,0.0,100,0.00,,,0.00,Wunderground v.1.15,2013-01-18 05:39:00,
2013-01-18 00:44:00,34.4,34.4,30.30,NNW,344,0.0,0.0,100,0.00,,,0.00,Wunderground v.1.15,2013-01-18 05:44:00,
2013-01-18 00:49:00,34.4,34.4,30.30,NNW,344,0.0,0.0,100,0.00,,,0.00,Wunderground v.1.15,2013-01-18 05:49:00,
2013-01-18 00:59:00,34.4,34.4,30.30,NNW,344,0.0,0.0,100,0.00,,,0.00,Wunderground v.1.15,2013-01-18 05:59:00,
2013-01-18 01:04:00,34.4,34.4,30.31,NNW,344,0.0,0.0,100,0.00,,,0.00,Wunderground v.1.15,2013-01-18 06:04:00,
2013-01-18 01:09:00,34.2,34.2,30.31,NNW,346,0.0,0.0,100,0.00,,,0.00,Wunderground v.1.15,2013-01-18 06:09:00,
2013-01-18 01:19:00,34.1,34.1,30.33,NNW,344,0.0,0.0,100,0.00,,,0.00,Wunderground v.1.15,2013-01-18 06:19:00,
2013-01-18 01:29:00,34.0,34.0,30.33,NNW,348,0.0,0.0,100,0.00,,,0.00,Wunderground v.1.15,2013-01-18 06:29:00,
2013-01-18 01:34:00,33.9,33.9,30.33,NNW,348,0.0,0.0,100,0.00,,,0.00,Wunderground v.1.15,2013-01-18 06:34:00,
2013-01-18 01:44:00,33.9,33.9,30.33,North,360,0.0,0.0,100,0.00,,,0.00,Wunderground v.1.15,2013-01-18 06:44:00,
2013-01-18 01:49:00,33.8,33.8,30.33,North,360,0.0,0.0,100,0.00,,,0.00,Wunderground v.1.15,2013-01-18 06:49:00,
2013-01-18 01:59:00,33.7,33.7,30.33,North,360,0.0,0.0,100,0.00,,,0.00,Wunderground v.1.15,2013-01-18 06:59:00,
2013-01-18 02:04:00,33.5,33.5,30.34,North,360,0.0,0.0,100,0.00,,,0.00,Wunderground v.1.15,2013-01-18 07:04:00,
2013-01-18 02:10:00,33.4,33.4,30.34,North,360,0.0,0.0,100,0.00,,,0.00,Wunderground v.1.15,2013-01-18 07:10:00,
2013-01-18 02:19:00,33.2,33.2,30.35,North,360,0.0,0.0,100,0.00,,,0.00,Wunderground v.1.15,2013-01-18 07:19:00,
2013-01-18 02:29:00,32.9,32.9,30.35,North,360,0.0,0.0,100,0.00,,,0.00,Wunderground v.1.15,2013-01-18 07:29:00,
2013-01-18 02:39:00,32.7,32.7,30.36,North,360,0.0,0.0,100,0.00,,,0.00,Wunderground v.1.15,2013-01-18 07:39:00,
2013-01-18 02:44:00,32.6,32.6,30.36,North,360,0.0,0.0,100,0.00,,,0.00,Wunderground v.1.15,2013-01-18 07:44:00,
2013-01-18 02:49:00,32.5,32.5,30.35,North,360,0.0,0.0,100,0.00,,,0.00,Wunderground v.1.15,2013-01-18 07:49:00,
2013-01-18 02:59:00,32.2,32.2,30.35,North,360,0.0,0.0,100,0.00,,,0.00,Wunderground v.1.15,2013-01-18 07:59:00,
2013-01-18 03:04:00,32.1,32.1,30.35,North,360,0.0,0.0,100,0.00,,,0.00,Wunderground v.1.15,2013-01-18 08:04:00,
2013-01-18 03:10:00,32.1,32.1,30.35,North,360,0.0,0.0,100,0.00,,,0.00,Wunderground v.1.15,2013-01-18 08:10:00,
2013-01-18 03:19:00,32.0,32.0,30.36,North,360,0.0,0.0,100,0.00,,,0.00,Wunderground v.1.15,2013-01-18 08:19:00,
2013-01-18 03:29:00,31.9,31.9,30.36,North,360,0.0,0.0,100,0.00,,,0.00,Wunderground v.1.15,2013-01-18 08:29:00,
2013-01-18 03:39:00,31.7,31.7,30.36,North,360,0.0,0.0,100,0.00,,,0.00,Wunderground v.1.15,2013-01-18 08:39:00,
2013-01-18 03:49:00,31.7,31.7,30.36,North,360,0.0,0.0,100,0.00,,,0.00,Wunderground v.1.15,2013-01-18 08:49:00,
2013-01-18 03:59:00,31.7,31.7,30.36,North,360,0.0,0.0,100,0.00,,,0.00,Wunderground v.1.15,2013-01-18 08:59:00,
2013-01-18 04:05:00,31.6,31.6,30.37,North,360,0.0,0.0,100,0.00,,,0.00,Wunderground v.1.15,2013-01-18 09:05:00,
2013-01-18 04:14:00,31.5,31.5,30.37,North,360,0.0,0.0,100,0.00,,,0.00,Wunderground v.1.15,2013-01-18 09:14:00,
2013-01-18 04:19:00,31.5,31.5,30.37,North,360,0.0,0.0,100,0.00,,,0.00,Wunderground v.1.15,2013-01-18 09:19:00,
2013-01-18 04:29:00,31.4,31.4,30.37,North,360,0.0,0.0,100,0.00,,,0.00,Wunderground v.1.15,2013-01-18 09:29:00,
2013-01-18 04:35:00,31.3,31.3,30.38,North,360,0.0,0.0,100,0.00,,,0.00,Wunderground v.1.15,2013-01-18 09:35:00,
2013-01-18 04:44:00,31.1,31.1,30.38,North,360,0.0,0.0,100,0.00,,,0.00,Wunderground v.1.15,2013-01-18 09:44:00,
2013-01-18 04:49:00,31.0,31.0,30.38,North,360,0.0,0.0,100,0.00,,,0.00,Wunderground v.1.15,2013-01-18 09:49:00,
2013-01-18 04:59:00,30.8,30.8,30.38,North,360,0.0,0.0,100,0.00,,,0.00,Wunderground v.1.15,2013-01-18 09:59:00,
2013-01-18 05:05:00,30.8,30.8,30.38,North,360,0.0,0.0,100,0.00,,,0.00,Wunderground v.1.15,2013-01-18 10:05:00,
2013-01-18 05:10:00,30.7,30.7,30.38,North,360,0.0,0.0,100,0.00,,,0.00,Wunderground v.1.15,2013-01-18 10:10:00,
2013-01-18 05:19:00,30.4,30.4,30.38,North,360,0.0,0.0,100,0.00,,,0.00,Wunderground v.1.15,2013-01-18 10:19:00,
2013-01-18 05:29:00,30.4,30.4,30.38,North,360,0.0,0.0,100,0.00,,,0.00,Wunderground v.1.15,2013-01-18 10:29:00,
2013-01-18 05:35:00,30.4,30.4,30.39,North,360,0.0,0.0,100,0.00,,,0.00,Wunderground v.1.15,2013-01-18 10:35:00,
2013-01-18 05:40:00,30.4,30.4,30.39,North,360,0.0,0.0,100,0.00,,,0.00,Wunderground v.1.15,2013-01-18 10:40:00,
2013-01-18 05:49:00,30.4,30.4,30.40,North,360,0.0,0.0,100,0.00,,,0.00,Wunderground v.1.15,2013-01-18 10:49:00,
2013-01-18 05:59:00,30.3,30.3,30.40,North,360,0.0,0.0,100,0.00,,,0.00,Wunderground v.1.15,2013-01-18 10:59:00,
2013-01-18 06:09:00,30.3,30.3,30.41,North,360,0.0,0.0,100,0.00,,,0.00,Wunderground v.1.15,2013-01-18 11:09:00,
2013-01-18 06:14:00,30.3,30.3,30.41,North,360,0.0,0.0,100,0.00,,,0.00,Wunderground v.1.15,2013-01-18 11:14:00,
2013-01-18 06:19:00,30.3,30.3,30.42,North,360,0.0,0.0,100,0.00,,,0.00,Wunderground v.1.15,2013-01-18 11:19:00,
2013-01-18 06:29:00,30.1,30.1,30.42,North,360,0.0,0.0,100,0.00,,,0.00,Wunderground v.1.15,2013-01-18 11:29:00,
2013-01-18 06:39:00,30.9,30.9,30.42,North,360,0.0,0.0,100,0.00,,,0.00,Wunderground v.1.15,2013-01-18 11:39:00,
2013-01-18 06:44:00,32.0,32.0,30.42,North,360,0.0,0.0,100,0.00,,,0.00,Wunderground v.1.15,2013-01-18 11:44:00,
2013-01-18 06:54:00,31.7,31.7,30.41,North,360,0.0,0.0,100,0.00,,,0.00,Wunderground v.1.15,2013-01-18 11:54:00,
2013-01-18 06:59:00,31.5,31.5,30.41,North,360,0.0,0.0,100,0.00,,,0.00,Wunderground v.1.15,2013-01-18 11:59:00,
2013-01-18 11:30:00,42.8,42.8,30.52,North,360,0.0,0.0,100,0.00,,,0.00,Wunderground v.1.15,2013-01-18 16:30:00,
2013-01-18 11:39:00,43.7,43.7,30.51,North,360,0.0,0.0,100,0.00,,,0.00,Wunderground v.1.15,2013-01-18 16:39:00,
2013-01-18 11:49:00,45.1,45.1,30.51,North,360,0.0,0.0,100,0.00,,,0.00,Wunderground v.1.15,2013-01-18 16:49:00,
2013-01-18 11:59:00,46.0,46.0,30.51,North,360,0.0,0.0,100,0.00,,,0.00,Wunderground v.1.15,2013-01-18 16:59:00,
2013-01-18 12:04:00,46.8,46.8,30.50,North,360,0.0,0.0,100,0.00,,,0.00,Wunderground v.1.15,2013-01-18 17:04:00,
2013-01-18 12:09:00,47.2,47.2,30.50,North,360,0.0,0.0,100,0.00,,,0.00,Wunderground v.1.15,2013-01-18 17:09:00,
2013-01-18 12:19:00,48.5,48.5,30.49,North,360,0.0,0.0,100,0.00,,,0.00,Wunderground v.1.15,2013-01-18 17:19:00,
2013-01-18 12:25:00,49.2,48.1,30.49,North,360,0.0,0.0,96,0.00,,,0.00,Wunderground v.1.15,2013-01-18 17:25:00,
2013-01-18 12:34:00,49.6,45.0,30.48,North,360,0.0,0.0,84,0.00,,,0.00,Wunderground v.1.15,2013-01-18 17:34:00,
2013-01-18 12:39:00,49.6,45.6,30.48,North,360,0.0,0.0,86,0.00,,,0.00,Wunderground v.1.15,2013-01-18 17:39:00,
2013-01-18 12:49:00,50.6,43.0,30.48,North,360,0.0,0.0,75,0.00,,,0.00,Wunderground v.1.15,2013-01-18 17:49:00,
2013-01-18 12:59:00,51.3,45.3,30.48,North,360,0.0,0.0,80,0.00,,,0.00,Wunderground v.1.15,2013-01-18 17:59:00,
2013-01-18 13:05:00,52.0,45.7,30.47,North,360,0.0,0.0,79,0.00,,,0.00,Wunderground v.1.15,2013-01-18 18:05:00,
2013-01-18 13:10:00,52.9,43.7,30.47,North,360,0.0,0.0,71,0.00,,,0.00,Wunderground v.1.15,2013-01-18 18:10:00,
2013-01-18 13:19:00,53.7,40.1,30.47,North,360,0.0,0.0,60,0.00,,,0.00,Wunderground v.1.15,2013-01-18 18:19:00,
2013-01-18 13:29:00,54.1,41.8,30.47,North,360,0.0,0.0,63,0.00,,,0.00,Wunderground v.1.15,2013-01-18 18:29:00,
2013-01-18 13:39:00,53.3,39.3,30.46,North,5,0.0,0.0,59,0.00,,,0.00,Wunderground v.1.15,2013-01-18 18:39:00,
2013-01-18 13:45:00,53.5,41.6,30.46,North,5,0.0,0.0,64,0.00,,,0.00,Wunderground v.1.15,2013-01-18 18:45:00,
2013-01-18 13:50:00,53.8,38.9,30.46,North,5,0.0,0.0,57,0.00,,,0.00,Wunderground v.1.15,2013-01-18 18:50:00,
2013-01-18 13:59:00,54.0,38.6,30.46,North,5,0.0,0.0,56,0.00,,,0.00,Wunderground v.1.15,2013-01-18 18:59:00,
2013-01-18 14:09:00,54.2,36.5,30.46,North,10,0.0,0.0,51,0.00,,,0.00,Wunderground v.1.15,2013-01-18 19:09:00,
2013-01-18 14:15:00,54.2,40.2,30.46,North,10,0.0,0.0,59,0.00,,,0.00,Wunderground v.1.15,2013-01-18 19:15:00,
2013-01-18 14:25:00,55.1,39.7,30.46,NNE,14,0.0,0.0,56,0.00,,,0.00,Wunderground v.1.15,2013-01-18 19:25:00,
2013-01-18 14:30:00,55.5,39.6,30.46,NNE,14,0.0,0.0,55,0.00,,,0.00,Wunderground v.1.15,2013-01-18 19:30:00,
2013-01-18 14:39:00,56.1,41.1,30.46,SE,125,0.0,0.0,57,0.00,,,0.00,Wunderground v.1.15,2013-01-18 19:39:00,
2013-01-18 14:49:00,55.8,35.9,30.46,SSE,163,1.0,1.0,47,0.00,,,0.00,Wunderground v.1.15,2013-01-18 19:49:00,
2013-01-18 14:59:00,55.3,38.0,30.46,SSE,163,0.0,0.0,52,0.00,,,0.00,Wunderground v.1.15,2013-01-18 19:59:00,
2013-01-18 15:05:00,55.1,36.8,30.46,SSE,163,0.0,0.0,50,0.00,,,0.00,Wunderground v.1.15,2013-01-18 20:05:00,
2013-01-18 15:10:00,54.7,35.9,30.46,SSE,163,0.0,1.0,49,0.00,,,0.00,Wunderground v.1.15,2013-01-18 20:10:00,
2013-01-18 15:19:00,53.8,36.6,30.46,SSE,163,0.0,2.0,52,0.00,,,0.00,Wunderground v.1.15,2013-01-18 20:19:00,
2013-01-18 15:29:00,53.0,34.8,30.46,SSE,163,0.0,0.0,50,0.00,,,0.00,Wunderground v.1.15,2013-01-18 20:29:00,
2013-01-18 15:35:00,52.9,37.2,30.46,SSE,163,0.0,0.0,55,0.00,,,0.00,Wunderground v.1.15,2013-01-18 20:35:00,
2013-01-18 15:40:00,52.8,36.6,30.46,SSE,163,0.0,0.0,54,0.00,,,0.00,Wunderground v.1.15,2013-01-18 20:40:00,
2013-01-18 15:49:00,52.4,35.8,30.46,SSE,163,0.0,0.0,53,0.00,,,0.00,Wunderground v.1.15,2013-01-18 20:49:00,
2013-01-18 15:59:00,52.3,38.4,30.46,SSE,163,0.0,0.0,59,0.00,,,0.00,Wunderground v.1.15,2013-01-18 20:59:00,
2013-01-18 16:09:00,51.9,35.3,30.46,SSE,163,0.0,0.0,53,0.00,,,0.00,Wunderground v.1.15,2013-01-18 21:09:00,
2013-01-18 16:14:00,51.8,37.9,30.46,SSE,163,0.0,0.0,59,0.00,,,0.00,Wunderground v.1.15,2013-01-18 21:14:00,
2013-01-18 16:19:00,51.7,36.5,30.46,SSE,163,0.0,0.0,56,0.00,,,0.00,Wunderground v.1.15,2013-01-18 21:19:00,
2013-01-18 16:29:00,51.5,35.9,30.46,SSE,163,0.0,0.0,55,0.00,,,0.00,Wunderground v.1.15,2013-01-18 21:29:00,
2013-01-18 16:39:00,51.3,36.6,30.46,SSE,163,0.0,0.0,57,0.00,,,0.00,Wunderground v.1.15,2013-01-18 21:39:00,
2013-01-18 16:45:00,51.1,36.8,30.46,SSE,163,0.0,0.0,58,0.00,,,0.00,Wunderground v.1.15,2013-01-18 21:45:00,
2013-01-18 16:54:00,50.9,36.2,30.47,SSE,163,0.0,0.0,57,0.00,,,0.00,Wunderground v.1.15,2013-01-18 21:54:00,
2013-01-18 16:59:00,50.8,37.4,30.47,SSE,163,0.0,0.0,60,0.00,,,0.00,Wunderground v.1.15,2013-01-18 21:59:00,
2013-01-18 17:09:00,50.6,37.6,30.46,SSE,163,0.0,0.0,61,0.00,,,0.00,Wunderground v.1.15,2013-01-18 22:09:00,
2013-01-18 17:15:00,50.4,37.4,30.46,SSE,163,0.0,0.0,61,0.00,,,0.00,Wunderground v.1.15,2013-01-18 22:15:00,
2013-01-18 17:20:00,50.3,37.8,30.47,SSE,163,0.0,0.0,62,0.00,,,0.00,Wunderground v.1.15,2013-01-18 22:20:00,
2013-01-18 17:29:00,49.9,40.1,30.47,SSE,163,0.0,0.0,69,0.00,,,0.00,Wunderground v.1.15,2013-01-18 22:29:00,
2013-01-18 17:39:00,49.4,40.4,30.47,SSE,163,0.0,0.0,71,0.00,,,0.00,Wunderground v.1.15,2013-01-18 22:39:00,
2013-01-18 17:49:00,48.9,41.0,30.48,SSE,163,0.0,0.0,74,0.00,,,0.01,Wunderground v.1.15,2013-01-18 22:49:00,
2013-01-18 17:55:00,48.5,39.5,30.48,SSE,163,0.0,0.0,71,0.00,,,0.01,Wunderground v.1.15,2013-01-18 22:55:00,
2013-01-18 18:00:00,48.0,39.0,30.48,SSE,163,0.0,0.0,71,0.00,,,0.01,Wunderground v.1.15,2013-01-18 23:00:00,
2013-01-18 18:09:00,47.2,41.3,30.48,SSE,163,0.0,0.0,80,0.00,,,0.01,Wunderground v.1.15,2013-01-18 23:09:00,
2013-01-18 18:19:00,46.3,41.4,30.48,SSE,163,0.0,0.0,83,0.00,,,0.01,Wunderground v.1.15,2013-01-18 23:19:00,
2013-01-18 18:25:00,45.8,39.7,30.48,SSE,163,0.0,0.0,79,0.00,,,0.01,Wunderground v.1.15,2013-01-18 23:25:00,
2013-01-18 18:30:00,45.3,39.5,30.48,SSE,163,0.0,0.0,80,0.00,,,0.01,Wunderground v.1.15,2013-01-18 23:30:00,
2013-01-18 18:39:00,44.2,39.1,30.49,SSE,163,0.0,0.0,82,0.00,,,0.01,Wunderground v.1.15,2013-01-18 23:39:00,
2013-01-18 18:49:00,43.3,39.4,30.49,SSE,163,0.0,0.0,86,0.00,,,0.01,Wunderground v.1.15,2013-01-18 23:49:00,
2013-01-18 18:59:00,42.2,38.6,30.49,SSE,163,0.0,0.0,87,0.00,,,0.01,Wunderground v.1.15,2013-01-18 23:59:00,
2013-01-18 19:05:00,41.6,38.3,30.50,SSE,163,0.0,0.0,88,0.00,,,0.01,Wunderground v.1.15,2013-01-19 00:05:00,
2013-01-18 19:10:00,41.1,38.1,30.50,SSE,163,0.0,0.0,89,0.00,,,0.01,Wunderground v.1.15,2013-01-19 00:10:00,
2013-01-18 19:19:00,40.4,37.7,30.50,SSE,163,0.0,0.0,90,0.00,,,0.01,Wunderground v.1.15,2013-01-19 00:19:00,
2013-01-18 19:29:00,39.7,37.6,30.50,SSE,163,0.0,0.0,92,0.00,,,0.01,Wunderground v.1.15,2013-01-19 00:29:00,
2013-01-18 19:34:00,39.4,37.3,30.50,SSE,163,0.0,0.0,92,0.00,,,0.01,Wunderground v.1.15,2013-01-19 00:34:00,
2013-01-18 19:40:00,39.0,36.9,30.50,SSE,163,0.0,0.0,92,0.00,,,0.01,Wunderground v.1.15,2013-01-19 00:40:00,
2013-01-18 19:50:00,38.4,36.6,30.51,SSE,163,0.0,0.0,93,0.00,,,0.01,Wunderground v.1.15,2013-01-19 00:50:00,
2013-01-18 19:55:00,38.2,36.6,30.51,SSE,163,0.0,0.0,94,0.00,,,0.01,Wunderground v.1.15,2013-01-19 00:55:00,
2013-01-18 20:05:00,37.6,36.0,30.51,SSE,163,0.0,0.0,94,0.00,,,0.01,Wunderground v.1.15,2013-01-19 01:05:00,
2013-01-18 20:10:00,37.3,35.7,30.51,SSE,163,0.0,0.0,94,0.00,,,0.01,Wunderground v.1.15,2013-01-19 01:10:00,
2013-01-18 20:20:00,36.9,35.6,30.51,SSE,163,0.0,0.0,95,0.00,,,0.01,Wunderground v.1.15,2013-01-19 01:20:00,
2013-01-18 20:25:00,36.7,35.4,30.51,SSE,163,0.0,0.0,95,0.00,,,0.01,Wunderground v.1.15,2013-01-19 01:25:00,